Wind_Speed
28 30 32 34 36 39 42 44 47 50 53 57 60 63 67 70 73 76 79 83 86 90 93 97 102 106 110 114 118 122 126 130 135 139 143 147 151 154 156 157 158 159 160 162 165 167 169 170 171 171 171 171 171 170 170 171 170 171 170 170 170 170 170 170 170 169 168 167 166 165 163 161 159 157 156 154 152 151 149 147 146 144 142 140 138 137
27 28 31 33 35 38 40 43 46 49 52 55 59 62 65 69 72 75 78 81 84 88 92 95 99 103 107 111 115 119 124 128 132 136 140 144 148 151 154 155 157 158 159 161 163 166 168 169 170 171 171 170 170 170 169 169 169 169 169 169 169 169 169 169 168 168 168 167 166 165 163 161 160 158 156 154 153 151 150 148 146 145 143 141 139 138
26 28 30 32 34 37 39 42 45 48 51 54 57 60 64 67 70 73 76 79 82 86 90 94 97 101 105 109 113 117 121 125 129 133 137 141 145 148 151 153 155 156 157 159 161 164 167 169 170 170 170 170 170 169 169 168 168 168 168 168 167 167 167 168 167 167 167 166 165 164 163 161 160 158 156 155 153 152 150 148 147 145 144 142 140 138
25 27 29 31 33 36 38 41 44 47 49 52 56 59 62 65 68 71 74 77 81 84 88 92 95 99 103 107 110 114 118 122 126 130 134 138 142 146 149 151 153 154 156 157 160 163 166 168 169 170 170 170 169 169 168 168 167 167 167 166 166 166 166 166 166 166 166 165 165 164 163 161 160 158 157 155 154 152 151 149 147 146 144 143 141 139
25 26 28 30 32 35 37 40 43 46 48 51 54 57 61 64 67 70 73 76 79 82 86 90 93 97 101 104 108 112 116 119 123 127 131 135 139 143 146 149 151 153 154 156 158 161 164 167 168 170 170 170 169 169 168 168 167 167 166 165 165 165 165 165 165 165 165 165 164 163 162 161 160 158 157 155 154 152 151 150 148 147 145 143 142 140
24 26 27 29 32 34 36 39 42 45 47 50 53 56 59 62 65 68 71 74 78 81 84 88 92 95 99 102 106 110 113 117 121 125 129 133 137 141 144 147 149 151 153 155 157 160 163 165 167 169 169 169 169 169 168 168 167 166 165 165 164 164 164 164 164 164 164 164 164 163 162 161 159 158 156 155 154 153 151 150 149 147 146 144 142 141
23 25 27 29 31 33 36 38 41 44 46 49 52 55 58 61 64 67 70 73 76 79 83 86 90 93 97 100 104 108 111 115 119 122 126 130 134 138 142 145 148 150 152 153 156 158 161 164 166 167 168 168 168 168 168 167 166 166 165 164 163 163 163 163 163 163 163 163 163 163 162 161 159 158 156 155 154 153 152 150 149 148 146 145 143 141
22 24 26 28 30 32 35 37 40 43 46 48 51 54 57 60 63 66 69 72 75 78 81 84 88 91 95 98 102 106 109 113 117 120 124 128 132 136 140 143 146 149 150 152 154 156 159 162 164 165 167 167 167 167 167 166 165 165 164 163 163 162 162 162 162 162 162 162 163 162 162 161 159 158 156 155 154 152 151 150 149 148 147 145 144 142
21 23 25 27 29 31 34 36 39 42 44 47 50 52 55 58 61 64 67 70 73 76 79 83 86 90 93 97 100 104 107 111 115 118 122 126 130 134 138 141 144 147 149 150 152 154 157 160 162 164 165 166 166 166 166 165 165 164 163 162 162 161 161 161 161 161 161 161 162 162 161 161 159 158 156 155 153 152 151 150 149 148 147 146 144 143
20 22 24 26 28 31 33 36 38 41 43 46 48 51 54 57 60 63 66 69 72 75 78 81 84 88 91 95 98 102 105 109 112 116 120 124 128 132 136 139 142 145 147 149 151 153 155 158 161 163 164 165 166 166 165 165 164 163 163 162 161 161 160 160 160 160 160 161 161 161 161 160 159 158 156 155 153 152 151 150 149 149 148 146 145 143
19 21 23 25 27 30 32 35 37 40 42 45 47 50 53 56 59 62 65 68 71 74 76 80 83 86 89 93 96 100 103 107 110 114 118 122 125 129 133 137 141 143 146 148 150 152 154 157 159 162 164 165 165 165 165 165 164 163 163 162 161 161 160 160 160 160 160 160 160 160 160 159 159 158 156 155 154 152 151 150 150 149 148 146 145 144
18 19 22 24 26 29 31 34 36 39 41 44 46 49 52 54 57 60 63 66 69 72 75 78 81 84 88 91 95 98 102 105 109 112 116 120 123 127 131 135 138 142 144 147 148 150 153 155 158 160 163 164 165 165 165 165 164 164 163 162 162 161 160 160 160 159 159 159 159 159 159 159 158 157 157 155 154 152 151 150 150 149 148 146 145 144
17 18 20 23 25 28 30 33 35 38 40 43 45 48 51 53 56 59 62 65 68 70 73 76 79 83 86 89 93 96 100 104 107 110 114 118 122 126 130 133 137 140 143 145 147 149 152 154 157 159 161 163 164 164 165 164 164 164 163 163 162 161 161 160 160 159 159 159 158 158 158 158 158 157 156 155 154 153 152 151 150 149 147 146 145 143
16 17 19 21 24 27 29 32 34 37 39 42 44 47 49 52 55 57 60 63 66 69 72 75 78 81 84 88 91 95 98 102 105 109 112 116 120 124 128 131 135 139 141 144 147 148 150 153 155 158 160 162 163 164 164 164 164 164 163 163 162 162 161 160 160 159 158 158 158 157 157 157 157 156 156 155 154 153 152 151 150 149 148 146 145 143
15 16 18 20 23 25 28 31 33 36 38 41 43 46 48 51 53 56 59 62 65 67 70 73 76 79 82 86 89 93 96 100 104 107 111 114 118 122 125 129 133 137 140 143 145 147 149 151 154 156 158 161 162 163 164 164 164 164 163 163 162 162 161 160 159 159 158 157 157 156 156 156 156 156 155 155 154 153 152 151 150 149 148 146 145 144
15 15 17 19 21 24 27 29 32 35 37 40 42 45 47 50 52 55 58 60 63 66 69 72 75 78 81 84 88 91 95 98 102 105 109 113 116 120 124 127 131 135 138 141 144 145 147 149 152 155 157 159 161 162 163 163 163 163 163 163 162 161 161 160 159 158 157 157 156 156 155 155 155 155 155 154 153 153 152 151 150 149 148 146 145 144
14 14 16 17 20 22 25 28 31 33 36 38 41 44 46 49 51 54 56 59 62 65 68 70 73 76 79 83 86 90 93 97 100 104 107 111 114 118 122 126 130 133 136 139 142 144 146 148 150 153 156 158 160 161 162 163 163 163 163 162 162 161 160 159 158 157 156 156 155 155 155 154 154 154 154 153 153 152 151 151 150 149 148 146 145 144
14 14 15 16 18 21 23 26 29 32 35 37 40 43 45 48 50 53 55 58 61 64 66 69 72 75 78 81 85 88 91 95 98 102 105 109 113 116 120 124 127 131 134 138 140 142 144 146 149 151 154 156 159 160 161 162 163 163 162 162 161 161 160 159 158 157 156 155 155 154 154 154 153 153 153 152 152 151 151 150 149 149 148 146 145 143
14 13 14 15 17 19 22 25 28 31 33 36 39 42 44 47 50 52 55 57 60 62 65 68 70 73 76 79 82 86 89 93 96 100 104 107 111 114 118 122 125 129 132 135 138 140 142 144 147 149 152 155 157 159 160 161 162 162 162 161 161 160 159 158 157 156 155 155 154 153 153 153 153 152 152 151 151 151 150 149 149 148 147 146 145 143
14 13 13 14 16 18 21 23 26 29 32 35 38 40 43 46 49 51 54 56 59 61 64 66 69 71 74 77 81 84 87 91 95 98 102 105 109 113 116 120 124 127 130 133 136 138 140 143 145 147 150 153 155 158 159 160 161 161 161 161 160 159 159 158 157 156 155 154 154 153 153 152 152 152 151 151 150 150 149 149 148 147 147 146 144 143
14 13 13 13 15 17 19 22 25 28 31 34 37 39 42 45 48 50 53 55 58 60 62 65 67 70 73 76 79 83 86 89 93 97 100 104 107 111 114 118 122 125 128 131 134 136 138 141 143 146 148 151 154 156 158 159 160 160 161 160 160 159 158 158 157 156 155 154 153 153 152 152 151 151 150 150 149 149 148 148 147 147 146 145 144 143
14 13 13 13 14 16 18 21 23 26 29 32 35 38 41 44 47 49 52 54 56 59 61 63 66 68 71 74 78 81 84 88 91 95 98 102 105 109 113 116 120 123 126 129 132 134 136 139 141 144 147 149 152 155 157 158 159 160 160 160 159 159 158 157 156 155 154 154 153 152 152 151 151 150 150 149 148 148 148 147 147 146 146 145 144 143
14 13 12 12 13 15 17 19 22 25 28 31 34 37 40 43 45 48 50 53 55 57 60 62 64 67 70 73 76 79 83 86 89 93 96 100 104 107 111 114 118 121 124 127 129 132 135 137 140 142 145 147 150 153 155 157 158 159 159 159 159 158 158 157 156 155 154 153 153 152 151 151 150 149 149 148 148 147 147 146 146 146 145 144 143 143
15 13 12 12 13 14 16 18 21 23 26 30 33 36 39 41 44 47 49 52 54 56 58 61 63 66 69 72 75 78 81 85 88 91 95 98 101 105 108 112 116 119 122 124 127 130 133 136 138 140 143 146 149 152 154 156 157 158 158 158 158 158 157 157 156 155 154 153 152 152 151 150 150 149 148 147 147 147 146 146 146 145 145 144 143 143
15 14 13 12 12 13 15 17 20 22 25 28 31 34 37 40 43 45 48 51 53 55 58 60 63 65 68 71 74 77 80 83 86 89 93 96 99 103 106 110 114 117 119 122 125 128 131 134 136 138 141 144 147 150 152 155 156 157 158 158 158 157 157 156 156 155 154 153 152 152 151 150 149 148 148 147 146 146 146 145 145 145 144 144 143 142
15 14 13 12 12 13 14 16 18 21 24 27 30 33 36 39 42 44 47 50 52 55 57 59 62 64 67 69 72 75 78 81 84 87 91 94 97 101 105 108 111 115 117 120 123 126 129 132 134 137 139 142 145 148 151 153 155 156 157 157 157 157 157 156 155 155 154 153 152 151 151 150 149 148 147 147 146 146 145 145 145 144 144 144 143 142
15 14 13 12 12 12 13 15 18 20 23 25 28 31 34 37 40 43 46 49 51 54 56 58 61 63 65 68 71 74 77 80 83 86 88 92 95 99 103 106 109 112 115 118 121 124 127 130 133 135 138 140 143 146 149 152 154 155 156 157 157 157 156 156 155 154 154 153 152 151 151 150 149 148 147 146 146 145 145 145 144 144 144 143 143 142
15 14 13 12 12 12 13 14 16 19 21 24 27 30 33 36 39 42 45 48 50 53 55 57 60 62 65 67 70 72 75 78 81 84 87 90 93 97 100 104 107 110 113 116 119 122 125 128 130 133 136 138 141 144 148 150 153 154 156 156 156 156 156 155 155 154 153 153 152 151 150 149 148 147 147 146 145 145 144 144 144 144 143 143 142 141
15 14 13 12 11 11 12 14 16 18 20 23 26 29 32 35 38 41 44 47 49 52 55 57 59 61 64 66 68 71 74 76 79 82 85 88 91 95 98 102 105 108 111 114 117 120 123 126 128 131 134 136 139 142 146 149 151 153 154 155 155 155 155 155 154 154 153 153 152 151 150 149 148 147 146 146 145 144 144 144 144 143 143 142 142 141
15 14 12 11 11 11 12 13 15 17 19 22 25 28 30 33 36 39 43 46 49 51 54 56 58 61 63 65 68 70 73 75 78 80 83 86 89 93 96 100 103 106 109 112 115 119 122 124 126 129 131 134 137 140 144 147 150 152 153 154 155 155 155 154 154 153 153 152 152 151 150 149 148 147 146 145 145 144 144 143 143 143 142 142 141 140
15 13 12 11 11 11 11 12 14 16 18 21 24 26 29 32 35 38 42 45 48 50 53 56 58 60 63 65 67 69 72 74 76 79 82 85 87 90 94 97 101 104 107 110 114 117 120 122 124 126 129 132 135 138 142 145 148 151 152 154 154 154 154 154 154 153 153 152 152 151 150 149 148 147 146 145 144 144 143 143 143 142 142 141 140 140
15 13 12 11 10 10 11 12 13 15 17 20 22 25 28 31 34 37 40 44 46 49 52 55 57 60 62 64 66 68 70 72 75 77 80 83 85 88 92 95 98 102 105 108 111 115 118 120 122 125 127 130 134 137 140 143 146 149 151 153 154 154 154 154 154 153 153 152 151 151 150 149 148 147 146 145 144 143 143 143 142 142 141 141 140 139
15 13 12 10 10 10 10 11 12 14 17 19 21 24 27 30 33 36 39 42 45 48 51 54 57 59 61 63 65 67 69 71 74 76 79 81 84 86 90 93 96 99 102 106 109 112 114 117 119 122 125 128 132 135 138 141 144 148 150 152 153 154 154 154 153 153 152 152 151 151 150 149 148 147 146 145 144 143 143 142 142 141 141 140 139 139
15 13 11 10 9 9 9 10 12 14 16 18 21 23 26 29 32 35 38 41 44 47 50 53 56 58 61 62 64 66 68 70 73 75 77 80 82 85 88 91 94 97 100 104 107 110 112 114 117 120 123 126 129 132 136 139 143 146 148 151 153 153 154 153 153 153 152 152 151 150 150 149 148 147 146 145 144 143 142 142 141 141 140 139 139 138
16 13 11 10 9 8 9 10 11 13 15 17 20 22 25 28 31 34 36 40 43 46 49 52 55 57 59 62 63 66 68 70 72 74 76 79 81 83 86 89 92 95 98 102 105 108 111 113 116 118 121 124 127 130 134 137 141 144 147 149 151 153 153 153 153 153 152 151 151 150 149 149 148 147 146 145 144 143 142 141 141 140 139 138 138 138
16 13 11 9 8 8 8 9 10 12 14 16 19 21 24 26 29 32 35 38 41 44 47 50 53 56 58 60 62 65 67 69 71 73 75 78 80 82 85 87 90 93 96 100 103 106 109 112 114 117 119 122 125 128 131 135 138 142 145 148 150 151 152 153 153 152 152 151 151 150 149 148 148 147 146 144 144 142 142 141 140 139 138 138 137 137
16 14 11 9 8 7 7 8 9 11 13 16 18 20 23 25 28 31 34 37 40 43 46 49 52 54 57 59 61 64 66 68 70 72 74 76 78 80 83 86 88 91 94 97 101 104 106 109 112 115 118 121 124 126 129 133 136 140 144 147 149 151 152 152 152 152 152 151 150 150 149 148 147 147 145 144 143 142 141 140 139 138 137 137 137 137
16 14 11 9 8 7 7 7 9 11 13 15 17 19 22 24 27 30 32 35 38 41 45 48 50 53 56 58 61 63 65 67 69 71 73 75 77 79 82 84 87 89 92 95 98 101 104 107 111 114 117 119 121 124 127 131 135 139 142 145 147 149 151 151 152 152 151 151 150 150 149 148 147 146 145 144 143 142 140 139 138 137 137 137 136 136
17 14 12 9 8 6 6 7 8 10 12 14 16 19 21 24 26 29 32 34 37 40 44 47 49 52 55 57 59 62 64 66 68 70 72 74 76 78 80 83 85 88 91 93 96 99 102 106 109 112 115 117 120 122 125 128 132 136 140 143 145 148 150 151 151 151 151 150 150 149 148 148 147 146 145 144 143 141 140 139 138 137 137 137 136 136
17 14 12 10 8 6 6 6 7 9 11 13 16 18 20 23 25 28 31 34 37 40 43 46 48 51 54 56 59 61 63 65 67 69 71 73 75 77 79 81 84 86 89 91 94 97 101 104 107 109 112 115 118 120 123 126 130 133 137 141 144 147 149 150 151 151 151 150 150 149 148 147 146 146 145 143 142 141 140 139 138 137 137 136 136 135
17 15 12 10 8 6 5 6 7 9 11 13 15 17 20 22 25 27 30 33 36 39 42 45 47 50 53 55 58 60 62 64 66 68 70 72 74 76 78 80 82 85 87 90 93 96 99 102 105 108 110 113 116 118 121 125 128 131 135 139 143 146 147 149 150 150 150 150 149 149 148 147 146 145 144 143 142 141 140 139 138 137 137 136 135 135
18 15 13 10 8 6 5 5 6 8 10 12 14 17 19 21 24 27 29 32 35 38 41 44 47 49 52 55 57 59 61 62 64 66 68 70 72 74 77 79 81 83 86 88 91 94 97 100 103 106 109 111 114 117 119 122 126 129 133 137 140 143 145 147 149 150 150 150 149 148 147 146 146 145 144 143 141 140 139 138 137 137 136 135 134 134
18 16 13 11 8 6 5 4 5 7 9 11 14 16 18 21 23 26 29 31 34 37 40 43 46 49 51 54 56 58 60 61 63 65 67 69 71 73 75 77 80 82 84 87 89 92 95 98 101 104 107 109 112 115 118 121 124 127 131 134 138 141 144 147 148 149 149 149 149 148 147 146 145 144 143 142 141 140 139 138 137 136 135 135 134 133
18 16 13 11 8 6 4 4 5 6 9 11 13 15 18 20 22 25 28 30 33 36 39 42 45 48 50 53 55 57 58 60 62 64 66 68 70 72 75 77 79 81 83 86 88 91 93 96 99 102 105 107 110 113 116 119 122 125 129 132 136 140 143 146 147 148 149 149 148 148 147 146 145 144 142 141 140 139 138 137 136 135 135 134 133 132
18 16 13 11 9 6 4 3 4 6 8 10 12 14 17 19 21 24 27 29 32 35 38 41 43 46 49 51 53 55 57 59 61 62 65 67 69 72 74 76 78 80 83 85 87 89 92 95 97 100 103 105 108 111 114 117 120 123 126 130 134 137 140 143 145 147 148 148 148 147 146 145 144 143 142 141 140 139 138 137 136 135 135 134 133 132
18 16 14 11 9 7 4 3 3 5 7 9 11 13 16 18 20 23 25 28 31 33 36 39 42 44 47 49 51 54 55 57 59 61 64 66 68 71 73 76 78 80 82 84 86 88 90 93 95 98 101 103 106 109 112 115 118 121 124 128 132 135 138 141 143 145 147 147 147 147 146 145 144 143 142 141 140 139 138 137 136 135 135 134 133 132
18 16 14 12 9 7 4 3 2 4 6 9 11 13 15 17 19 22 24 27 29 32 34 37 39 42 45 47 49 52 54 56 58 60 63 65 68 70 73 75 77 79 81 83 84 86 88 91 93 96 99 102 105 107 110 113 116 119 123 126 130 133 136 140 142 144 145 146 147 146 145 144 143 143 142 140 139 138 137 137 136 135 135 134 132 131
18 16 14 12 9 7 4 2 2 4 6 8 10 12 14 16 19 21 23 25 28 30 32 35 37 40 42 45 47 49 52 54 57 59 62 64 67 69 72 74 76 78 80 81 83 85 87 89 91 94 97 100 103 105 108 111 114 118 121 124 127 131 134 138 140 142 144 145 146 146 145 144 144 143 141 140 139 138 137 137 136 135 134 133 132 131
18 16 14 12 10 7 5 2 1 3 5 7 10 12 14 16 18 20 22 24 26 29 31 33 36 38 40 43 45 47 50 52 55 58 60 63 66 68 71 73 75 77 79 80 82 84 85 87 90 92 95 98 101 103 106 109 112 116 119 122 125 129 132 135 138 140 143 144 145 145 144 144 143 142 140 139 138 137 137 137 136 135 134 132 131 129
18 16 14 12 10 7 5 3 1 2 5 7 9 11 13 16 18 20 22 24 26 28 30 32 35 37 39 41 43 46 48 51 53 56 59 62 64 67 70 72 74 76 77 79 81 82 84 86 88 91 93 96 99 101 104 107 110 113 117 120 123 127 130 133 136 138 141 143 144 144 144 143 142 141 139 139 138 137 137 136 135 134 132 130 129 128
18 16 14 12 10 8 5 3 1 2 4 6 9 11 13 15 17 19 21 23 25 27 30 32 34 36 38 40 42 44 47 49 52 54 57 60 63 65 68 70 72 74 76 77 79 81 83 85 87 89 92 94 97 100 102 105 108 111 115 118 121 124 127 130 133 136 139 141 142 143 143 142 141 140 139 138 137 137 136 135 134 132 130 129 128 127
Wind_Direction
252 247 242 238 234 231 228 226 224 222 220 218 217 216 215 214 213 213 212 212 212 212 212 212 212 212 212 213 213 213 213 213 213 213 213 214 214 214 215 215 215 214 213 212 212 211 212 213 213 214 214 215 215 215 215 215 215 215 215 215 215 215 215 215 215 216 216 216 217 217 217 217 217 218 218 218 218 218 219 219 219 219 220 220 220 221
253 248 242 238 234 231 228 226 224 222 220 219 217 216 215 214 213 213 212 212 211 211 211 211 211 212 212 212 212 212 212 212 213 213 213 213 214 214 214 214 214 214 213 212 212 211 211 212 213 213 214 214 215 215 215 215 215 215 215 215 215 215 215 215 215 215 216 216 216 216 217 217 217 217 217 218 218 218 218 218 219 219 219 220 220 220
254 248 243 239 235 231 228 226 224 222 220 219 218 216 215 214 213 212 212 211 211 211 211 211 211 211 211 212 212 212 212 212 212 212 213 213 213 213 214 214 214 214 214 213 212 211 211 211 212 213 213 214 214 214 215 215 215 215 215 215 215 215 215 215 215 215 215 216 216 216 216 217 217 217 217 217 217 218 218 218 218 219 219 219 219 220
256 250 244 239 235 232 229 226 223 222 220 219 218 216 215 214 213 212 212 211 211 211 211 210 210 210 211 211 211 212 212 212 212 212 212 213 213 213 213 214 214 214 213 213 212 211 211 211 211 212 213 213 214 214 214 214 215 215 215 215 215 215 215 215 215 215 215 215 215 216 216 216 216 217 217 217 217 217 217 218 218 218 218 219 219 219
257 251 245 240 236 232 229 226 224 221 220 218 217 216 215 214 213 212 211 211 211 210 210 210 210 210 210 210 211 211 211 211 212 212 212 212 212 213 213 213 214 214 213 213 212 211 211 211 211 212 212 213 213 213 214 214 214 214 214 214 214 214 214 214 214 214 215 215 215 215 215 216 216 216 216 217 217 217 217 217 217 218 218 218 218 219
258 252 246 241 236 232 229 226 224 221 219 218 217 216 215 214 213 212 211 211 210 210 210 210 210 210 210 210 210 210 211 211 211 211 212 212 212 212 213 213 213 213 213 213 212 211 211 210 211 211 212 212 213 213 213 214 214 214 214 214 214 214 214 214 214 214 214 214 215 215 215 215 215 215 216 216 216 216 217 217 217 217 217 218 218 218
259 253 247 242 237 233 229 227 224 222 219 218 216 216 215 214 213 212 211 211 210 210 210 210 210 209 209 209 209 210 210 210 211 211 211 211 211 212 212 212 213 213 213 213 212 211 211 210 211 211 212 212 213 213 213 213 214 214 214 214 214 214 214 214 214 214 214 214 214 214 214 214 215 215 215 215 216 216 216 216 217 217 217 217 217 218
260 254 248 243 238 233 230 227 225 223 220 218 216 215 214 214 213 212 211 211 210 210 210 209 209 209 209 209 209 209 209 210 210 210 210 211 211 211 212 212 212 213 213 212 212 211 211 210 210 211 211 212 212 213 213 213 213 213 213 213 213 213 213 213 213 214 214 214 214 214 214 214 214 214 214 215 215 215 216 216 216 216 216 217 217 217
261 254 249 243 239 234 230 227 225 223 221 218 216 215 214 213 213 212 211 211 210 210 209 209 209 209 209 209 208 209 209 209 209 209 210 210 210 211 211 211 212 212 212 212 212 211 211 210 210 211 211 211 212 212 213 213 213 213 213 213 213 213 213 213 213 213 213 214 214 214 214 214 214 214 214 214 214 215 215 215 216 216 216 216 216 217
263 256 249 244 239 235 231 227 225 223 221 219 217 215 214 213 212 212 211 211 210 210 209 209 209 209 208 208 208 208 208 208 209 209 209 210 210 210 210 211 211 212 212 212 212 211 211 210 210 210 211 211 211 212 212 213 213 213 213 213 213 213 213 213 213 213 213 213 214 214 214 214 213 213 213 213 214 214 214 215 215 215 216 216 216 216
265 257 250 245 240 235 231 228 225 223 221 219 217 215 214 213 212 212 211 211 210 210 209 209 209 208 208 208 208 208 208 208 208 208 209 209 209 210 210 210 211 211 211 212 212 211 211 210 210 210 210 211 211 211 212 212 212 213 213 213 213 213 213 213 213 213 213 213 213 213 213 213 213 213 213 213 213 213 214 214 214 215 215 215 216 216
268 259 252 246 240 236 232 228 225 223 221 219 217 215 214 213 212 211 211 211 210 210 209 209 209 208 208 208 208 208 207 207 208 208 208 208 209 209 209 210 210 211 211 211 211 211 211 210 210 210 210 210 211 211 211 212 212 212 212 212 212 212 212 212 212 212 212 213 213 213 213 213 213 213 213 213 213 213 213 214 214 214 215 215 215 216
270 261 253 247 241 237 233 228 225 223 221 219 217 215 214 213 212 211 211 210 210 210 209 209 209 208 208 208 207 207 207 207 207 207 208 208 208 208 209 209 210 210 210 211 211 211 210 210 210 209 210 210 210 211 211 211 212 212 212 212 212 212 212 212 212 212 212 212 212 212 213 213 213 213 213 212 212 212 213 213 213 214 214 214 215 215
274 264 255 248 242 238 233 229 226 223 220 218 217 215 214 213 211 211 210 210 210 210 209 209 209 208 208 207 207 207 207 207 207 207 207 207 208 208 208 209 209 210 210 210 211 211 210 210 209 209 209 209 210 210 211 211 211 212 212 212 212 212 212 212 212 212 212 212 212 212 212 212 212 212 212 212 212 212 212 213 213 213 214 214 214 214
277 266 257 249 243 238 234 230 226 223 220 218 217 215 214 212 211 210 210 210 210 209 209 209 209 208 208 207 207 207 207 207 207 207 207 207 207 207 208 208 209 209 209 210 210 210 210 210 209 209 209 209 209 210 210 211 211 211 212 212 212 212 212 212 212 212 212 212 212 212 212 212 212 212 212 212 212 212 212 212 213 213 213 213 214 214
280 269 259 251 245 239 235 231 227 223 220 218 217 215 214 212 211 210 209 209 209 209 209 209 209 208 208 207 207 207 207 207 207 206 206 207 207 207 207 208 208 209 209 209 210 210 210 210 209 209 209 209 209 210 210 210 211 211 212 212 212 212 212 212 212 212 212 212 212 212 212 212 212 212 212 212 212 212 212 212 212 212 213 213 213 213
284 272 261 252 246 240 236 231 228 224 221 218 216 215 214 212 211 210 209 209 209 209 209 209 208 208 208 207 207 207 207 207 207 206 206 206 207 207 207 207 208 208 209 209 209 210 210 210 209 209 209 209 209 209 210 210 211 211 211 212 212 212 212 212 212 212 212 211 211 211 212 212 212 212 212 212 212 212 212 212 212 212 212 213 213 213
287 275 263 254 247 241 236 232 228 224 221 218 216 215 213 212 210 209 208 208 208 208 208 208 208 208 208 207 207 207 207 207 206 206 206 206 206 207 207 207 207 208 208 209 209 209 209 209 209 209 208 208 208 209 209 210 210 211 211 211 212 212 212 212 212 212 211 211 211 211 211 211 211 211 211 211 211 211 212 212 212 212 212 212 212 213
291 278 267 256 248 241 237 232 229 225 222 219 216 215 213 212 210 209 208 207 207 208 208 208 208 208 208 207 207 207 207 207 206 206 206 206 206 206 207 207 207 208 208 208 209 209 209 209 209 209 208 208 208 208 209 209 210 210 211 211 211 211 211 212 211 211 211 211 211 211 211 211 211 211 211 211 211 211 211 212 212 212 212 212 212 212
295 283 270 259 250 242 237 233 229 226 222 219 216 214 213 212 210 209 208 207 207 207 207 207 207 207 207 207 207 207 207 206 206 206 206 206 206 206 206 207 207 207 208 208 208 209 209 209 209 208 208 208 208 208 209 209 210 210 211 211 211 211 211 211 211 211 211 211 211 211 211 211 211 211 211 211 211 211 211 211 211 212 212 212 212 212
299 287 274 262 252 243 237 233 229 226 223 220 217 215 213 212 210 209 208 207 206 206 206 207 207 207 207 207 207 207 207 206 206 206 206 206 206 206 206 206 207 207 207 208 208 208 208 208 208 208 208 208 208 208 208 209 209 210 210 211 211 211 211 211 211 211 211 211 211 211 211 211 211 211 211 211 211 211 211 211 211 211 211 212 211 212
302 291 278 266 254 245 238 233 229 226 223 220 218 215 213 212 211 209 208 207 206 206 206 206 206 206 207 207 207 207 207 207 206 206 206 206 206 206 206 206 207 207 207 208 208 208 208 208 208 208 208 208 208 208 208 208 209 209 210 210 211 211 211 211 211 211 211 211 211 211 211 211 211 211 211 211 211 211 211 211 211 211 211 211 211 211
305 294 282 269 257 247 239 233 229 226 223 221 218 216 213 212 210 209 208 207 206 205 205 205 205 206 206 206 207 207 207 206 206 206 206 206 206 206 206 206 207 207 207 207 207 208 208 208 208 208 208 207 207 207 208 208 208 209 209 210 210 210 211 211 211 211 211 211 211 211 211 211 211 211 211 210 210 210 210 210 211 211 211 211 211 211
307 297 286 273 260 250 241 235 229 226 223 221 218 216 214 212 210 209 208 207 206 205 204 204 205 205 206 206 206 206 206 206 206 206 206 206 206 206 206 206 206 207 207 207 207 207 208 208 208 208 207 207 207 207 207 208 208 209 209 210 210 210 210 210 211 211 211 211 211 211 211 211 210 210 210 210 210 210 210 210 210 210 211 211 211 211
310 300 289 276 264 252 243 236 230 226 223 220 219 216 215 212 211 209 208 206 206 205 204 204 204 204 205 205 206 206 206 206 206 206 206 206 206 206 206 206 206 207 207 207 207 207 207 207 208 207 207 207 207 207 207 207 208 208 209 209 210 210 210 210 210 210 210 210 210 210 210 210 210 210 210 210 210 210 210 210 210 210 210 210 210 210
312 302 292 280 267 255 245 237 231 226 223 220 218 217 215 213 211 209 208 206 205 204 204 203 204 204 204 205 205 206 206 206 206 206 206 206 206 206 206 206 206 207 207 207 207 207 207 207 207 207 207 207 207 207 207 207 207 208 208 209 209 209 210 210 210 210 210 210 210 210 210 210 210 210 210 210 210 210 210 210 210 210 210 210 210 210
314 304 295 283 271 258 248 239 232 227 223 220 218 216 215 213 211 209 208 206 205 204 203 203 203 203 204 205 205 205 206 206 206 206 206 206 206 206 206 206 206 206 206 206 206 207 207 207 207 207 207 207 206 206 206 207 207 207 208 208 209 209 209 210 210 210 210 210 210 210 210 210 210 210 210 210 209 209 209 210 210 210 210 210 210 210
316 307 298 286 274 261 250 240 233 228 223 220 218 216 215 213 211 210 208 207 205 204 203 203 202 203 203 204 205 205 205 205 205 205 206 206 206 206 206 206 206 206 206 206 206 206 207 207 207 207 207 207 206 206 206 206 207 207 207 208 209 209 209 209 210 210 210 210 210 210 210 210 210 210 209 209 209 209 209 209 209 209 209 209 209 209
318 309 300 289 277 264 252 242 234 229 224 220 218 216 214 213 212 210 208 207 205 204 203 202 202 202 203 203 204 204 205 205 205 205 205 205 205 206 206 206 206 206 206 206 206 206 206 207 207 207 206 206 206 206 206 206 206 207 207 208 208 209 209 209 209 210 210 210 210 210 210 210 210 210 209 209 209 209 209 209 209 209 209 209 209 209
321 312 303 291 279 267 254 244 235 229 224 221 218 216 214 213 212 210 209 207 205 204 203 202 202 202 202 202 203 204 204 204 204 205 205 205 205 205 206 206 206 206 206 206 206 206 206 206 206 206 206 206 206 206 206 206 206 206 207 207 208 208 209 209 209 209 209 210 210 210 210 210 209 209 209 209 209 209 209 209 209 209 209 209 209 209
323 315 305 294 282 269 256 246 237 230 225 221 218 216 214 213 211 210 209 208 206 204 203 202 201 201 201 202 202 203 203 204 204 204 204 205 205 205 205 206 206 206 206 206 206 206 206 206 206 206 206 206 206 206 205 205 206 206 206 207 207 208 208 209 209 209 209 209 209 210 209 209 209 209 209 209 209 209 209 209 209 209 209 209 209 209
326 318 308 297 285 272 258 247 238 231 226 222 219 216 214 213 211 211 210 208 206 205 203 202 201 201 201 201 202 202 202 203 203 204 204 204 204 205 205 206 206 206 206 206 206 206 206 206 206 206 206 206 205 205 205 205 205 206 206 206 207 207 208 208 209 209 209 209 209 209 209 209 209 209 209 209 209 209 209 209 209 209 209 209 208 208
328 321 312 301 288 274 260 248 238 231 226 222 219 217 214 213 211 211 210 208 207 205 204 203 202 201 201 201 201 201 202 202 203 203 203 204 204 204 205 205 206 206 206 206 206 206 206 206 206 206 205 205 205 205 205 205 205 205 205 206 206 207 207 208 208 208 209 209 209 209 209 209 209 209 209 209 208 208 208 208 209 209 208 208 208 208
331 325 315 305 291 276 262 249 238 231 226 222 219 217 215 213 212 211 210 208 207 206 204 203 202 201 201 201 201 201 201 201 202 202 203 203 203 203 204 205 205 205 206 206 206 206 206 206 206 205 205 205 205 205 205 205 205 205 205 205 206 207 207 207 208 208 208 209 209 209 209 209 209 209 209 209 208 208 208 208 208 208 208 208 208 208
334 328 319 309 295 279 264 249 239 231 226 222 219 217 215 214 212 211 210 209 208 207 205 204 203 202 201 201 200 200 201 201 201 201 202 202 202 203 203 204 205 205 205 205 205 205 205 205 205 205 205 205 205 205 205 204 204 205 205 205 206 206 207 207 208 208 208 208 209 209 209 209 209 209 209 208 208 208 208 208 208 208 208 208 208 208
337 331 324 313 300 283 264 250 238 231 225 221 218 216 215 214 212 211 210 209 208 207 206 205 204 202 202 201 200 200 200 200 201 201 201 201 201 202 202 203 204 204 205 205 205 205 205 205 205 205 205 205 205 205 204 204 204 204 204 205 205 206 206 207 207 208 208 208 208 208 209 209 209 209 208 208 208 208 208 208 208 208 208 208 208 208
339 335 328 318 304 286 266 250 238 229 224 220 217 216 215 213 212 211 210 209 208 207 206 205 204 203 202 201 200 200 200 200 200 200 200 200 201 201 202 202 203 204 204 205 205 205 205 205 205 205 205 205 204 204 204 204 204 204 204 204 205 205 206 206 207 207 208 208 208 208 208 208 208 208 208 208 208 208 208 208 208 208 208 208 208 208
342 338 332 323 310 291 269 250 236 227 222 219 216 214 213 212 212 211 210 209 208 207 206 206 205 203 202 201 201 201 200 200 200 200 200 200 200 200 201 202 202 203 204 204 204 204 205 205 204 205 204 204 204 204 204 204 204 204 204 204 205 205 205 206 206 207 207 208 208 208 208 208 208 208 208 208 208 208 208 207 207 207 207 208 208 208
344 340 335 328 315 296 273 251 236 226 221 217 214 213 212 211 210 210 209 208 208 207 206 205 204 203 203 202 201 201 201 200 200 199 199 199 199 199 200 201 201 202 203 203 204 204 204 204 204 204 204 204 204 204 204 203 203 203 204 204 204 205 205 206 206 207 207 207 208 208 208 208 208 208 208 208 208 207 207 207 207 207 207 207 207 207
346 343 339 332 321 302 277 252 236 225 219 215 213 211 210 209 209 208 208 207 207 206 206 205 204 204 203 202 202 201 201 201 200 199 199 199 198 199 199 200 201 201 202 203 203 203 204 204 204 204 204 204 204 204 203 203 203 203 203 203 204 204 205 205 206 206 207 207 207 208 208 208 208 208 208 208 207 207 207 207 207 207 207 207 207 207
348 346 341 336 326 308 281 255 235 224 217 213 211 209 208 208 208 207 207 207 206 206 205 205 204 203 203 202 202 201 201 201 200 199 199 198 198 198 198 199 200 200 201 202 202 203 203 204 204 204 204 204 203 203 203 203 203 203 203 203 203 204 204 205 205 206 206 207 207 207 207 207 208 208 207 207 207 207 207 207 206 207 207 207 207 207
350 347 344 340 330 315 291 259 235 223 215 211 209 208 207 207 207 206 206 206 206 205 205 204 204 203 203 202 202 201 201 200 200 199 199 198 198 198 198 198 199 200 200 201 202 202 203 203 203 203 204 203 203 203 203 203 203 202 203 203 203 203 204 204 205 205 206 206 207 207 207 207 207 207 207 207 207 207 207 206 206 206 207 207 207 207
351 349 347 343 336 323 299 264 237 221 213 210 207 206 205 205 205 205 205 205 205 205 205 204 204 203 203 202 202 201 201 200 200 199 198 198 197 197 197 198 198 199 199 200 201 201 202 202 203 203 203 203 203 203 203 202 202 202 202 202 202 203 203 204 204 205 205 206 206 207 207 207 207 207 207 207 207 207 206 206 206 206 206 207 207 207
352 351 349 345 340 329 308 272 239 221 212 208 206 204 204 204 204 204 204 205 205 205 205 204 204 204 203 202 202 201 200 200 199 198 198 197 197 197 197 197 198 198 199 199 200 201 201 202 202 203 203 203 203 202 202 202 202 202 202 202 202 202 203 203 204 204 205 206 206 206 207 207 207 207 207 207 207 206 206 206 206 206 206 206 206 206
354 352 351 348 344 335 317 281 241 220 210 206 204 203 203 203 202 203 203 204 204 204 204 204 204 204 203 203 202 201 200 199 199 198 197 197 197 196 196 197 197 197 198 198 199 200 200 201 201 202 202 202 202 202 202 202 202 202 202 202 202 202 202 203 203 204 204 205 206 206 206 206 206 206 206 206 206 206 206 206 206 206 206 206 206 206
355 354 352 350 346 341 326 292 244 218 207 203 201 201 201 201 202 202 202 203 203 204 204 204 204 204 204 203 202 201 200 199 198 198 197 197 196 196 196 196 196 197 197 198 198 199 199 200 201 201 201 202 202 202 202 201 201 201 201 201 201 202 202 202 203 203 204 204 205 205 206 206 206 206 206 206 206 206 206 206 206 206 206 206 206 206
357 356 354 352 349 344 334 304 242 213 203 199 198 198 198 199 200 200 201 202 202 203 203 204 204 204 204 203 203 202 200 199 198 197 197 196 196 196 196 196 196 196 197 197 197 198 198 199 199 200 201 201 201 201 201 201 201 201 201 201 201 201 202 202 202 203 203 204 204 205 205 206 206 206 206 206 206 206 206 206 206 205 205 205 205 205
359 358 356 354 352 348 340 317 246 210 199 195 194 195 195 196 197 198 199 200 200 201 202 203 203 203 203 203 203 202 201 199 198 198 197 197 196 196 196 196 196 196 196 196 196 197 197 198 198 199 200 200 201 201 201 201 201 201 200 200 201 201 201 201 202 202 203 203 204 204 205 205 205 206 206 205 205 205 205 205 205 205 205 205 205 205
360 360 358 357 355 352 346 331 253 205 194 192 191 191 192 193 194 195 196 197 198 199 200 201 201 202 202 202 202 201 200 200 199 198 197 197 196 196 196 196 196 196 196 195 195 196 196 197 197 198 199 199 200 200 200 200 200 200 200 200 200 200 201 201 201 202 202 203 203 204 204 205 205 205 205 205 205 205 205 205 205 205 205 205 205 205
2 1 0 359 357 355 353 344 273 200 191 188 188 189 189 190 191 192 193 194 195 196 197 198 199 200 200 201 201 201 200 199 199 198 197 197 197 196 196 196 196 195 195 195 195 195 195 195 196 197 198 199 199 199 200 200 200 200 200 200 200 200 200 200 201 201 202 202 203 203 204 204 205 205 205 205 205 205 205 205 205 205 204 204 204 205
3 3 2 1 360 359 358 354 325 189 186 185 185 187 187 188 188 189 190 191 193 194 195 196 196 197 198 198 199 199 199 199 199 198 198 197 197 197 196 196 196 195 195 194 194 194 194 194 195 196 197 198 198 199 199 199 199 199 199 199 199 199 200 200 200 200 201 202 202 203 203 204 204 204 204 204 205 205 205 205 205 204 204 204 204 204
Height
9954 9955 9956 9957 9958 9959 9961 9964 9966 9968 9971 9973 9976 9979 9983 9986 9990 9994 9999 10005 10010 10016 10023 10029 10036 10042 10049 10056 10064 10072 10080 10088 10097 10106 10115 10124 10134 10144 10154 10166 10178 10191 10204 10219 10233 10244 10255 10264 10274 10284 10294 10304 10316 10327 10338 10349 10361 10372 10384 10396 10408 10421 10434 10446 10456 10466 10476 10486 10496 10506 10516 10526 10537 10547 10557 10566 10575 10584 10591 10599 10607 10615 10624 10632 10639 10646
9953 9953 9954 9954 9956 9957 9959 9961 9963 9965 9968 9970 9973 9976 9979 9983 9987 9991 9996 10001 10006 10012 10018 10024 10031 10038 10044 10051 10059 10067 10074 10083 10091 10100 10109 10118 10128 10137 10147 10158 10169 10183 10196 10211 10224 10236 10247 10257 10266 10276 10286 10298 10309 10320 10331 10343 10354 10366 10378 10390 10402 10414 10427 10438 10449 10459 10469 10479 10489 10499 10509 10519 10530 10540 10549 10558 10567 10576 10584 10592 10600 10609 10617 10625 10633 10639
9951 9951 9951 9953 9953 9955 9956 9958 9960 9963 9964 9968 9970 9973 9976 9980 9984 9988 9993 9997 10003 10008 10013 10019 10025 10032 10039 10047 10054 10062 10070 10078 10086 10095 10104 10113 10122 10131 10141 10152 10163 10176 10189 10203 10217 10229 10240 10250 10259 10269 10279 10291 10302 10314 10325 10336 10348 10359 10372 10384 10396 10408 10420 10431 10442 10453 10462 10472 10483 10493 10503 10513 10523 10533 10542 10551 10559 10568 10577 10585 10594 10602 10610 10618 10626 10633
9949 9949 9949 9950 9951 9953 9954 9955 9957 9959 9962 9964 9968 9971 9974 9977 9981 9984 9989 9994 9999 10004 10009 10014 10021 10027 10034 10041 10049 10058 10066 10074 10082 10091 10099 10108 10118 10127 10137 10147 10158 10169 10183 10196 10210 10222 10233 10243 10252 10261 10272 10283 10294 10306 10317 10329 10341 10353 10365 10377 10389 10401 10413 10424 10435 10445 10455 10465 10475 10485 10496 10506 10516 10526 10534 10543 10553 10561 10570 10579 10587 10594 10603 10611 10619 10627
9946 9947 9948 9948 9949 9950 9951 9953 9954 9956 9959 9961 9964 9968 9971 9974 9978 9982 9986 9991 9995 10000 10005 10010 10016 10022 10029 10036 10044 10053 10061 10069 10078 10086 10094 10104 10113 10123 10132 10142 10153 10164 10176 10189 10202 10214 10225 10235 10244 10254 10263 10274 10285 10296 10308 10320 10332 10344 10357 10369 10382 10394 10405 10416 10427 10438 10448 10457 10467 10477 10488 10498 10508 10518 10527 10536 10545 10554 10563 10571 10579 10587 10595 10603 10611 10619
9944 9945 9945 9946 9947 9948 9949 9951 9952 9954 9956 9958 9961 9964 9968 9972 9976 9979 9983 9987 9991 9996 10001 10006 10012 10018 10024 10031 10039 10047 10056 10064 10073 10081 10089 10099 10108 10118 10127 10137 10147 10158 10169 10181 10194 10206 10217 10227 10236 10246 10256 10266 10277 10288 10299 10311 10323 10336 10348 10361 10373 10385 10396 10408 10419 10429 10439 10449 10458 10468 10479 10489 10500 10510 10519 10529 10538 10547 10555 10563 10571 10579 10587 10595 10603 10612
9943 9943 9943 9944 9945 9946 9947 9948 9950 9951 9953 9956 9958 9961 9965 9969 9973 9976 9980 9984 9988 9993 9998 10003 10008 10014 10021 10027 10034 10042 10050 10058 10067 10076 10084 10094 10103 10112 10121 10131 10141 10151 10162 10174 10186 10198 10209 10220 10230 10239 10250 10260 10271 10282 10293 10304 10316 10328 10340 10353 10365 10376 10388 10399 10411 10421 10431 10440 10450 10459 10470 10481 10491 10501 10511 10521 10530 10539 10547 10554 10563 10571 10579 10588 10596 10604
9941 9941 9941 9942 9943 9944 9945 9946 9948 9949 9951 9953 9955 9958 9962 9966 9969 9973 9977 9981 9985 9989 9994 9999 10004 10011 10016 10023 10030 10037 10045 10053 10061 10070 10079 10088 10097 10106 10115 10124 10134 10144 10155 10167 10179 10192 10204 10216 10226 10236 10246 10257 10268 10279 10289 10301 10312 10323 10335 10347 10359 10370 10381 10392 10403 10413 10423 10433 10442 10451 10462 10473 10483 10493 10503 10513 10521 10530 10539 10547 10555 10564 10573 10581 10589 10598
9939 9939 9939 9940 9941 9942 9943 9944 9946 9948 9949 9951 9953 9956 9959 9963 9966 9970 9974 9978 9982 9986 9991 9996 10001 10007 10013 10019 10026 10033 10040 10048 10056 10064 10074 10083 10091 10100 10109 10119 10129 10139 10149 10161 10174 10186 10199 10211 10222 10233 10243 10253 10264 10275 10286 10297 10308 10319 10331 10343 10354 10364 10375 10386 10396 10406 10416 10425 10434 10444 10454 10464 10476 10486 10496 10505 10514 10523 10531 10539 10548 10556 10565 10573 10583 10592
9938 9938 9938 9938 9939 9940 9941 9942 9943 9945 9947 9949 9951 9954 9956 9959 9963 9967 9971 9974 9979 9983 9988 9993 9998 10003 10009 10016 10022 10029 10036 10043 10051 10060 10068 10077 10086 10095 10104 10113 10123 10134 10144 10156 10168 10180 10193 10205 10216 10227 10237 10247 10258 10268 10279 10291 10302 10314 10325 10337 10348 10358 10369 10379 10388 10398 10408 10418 10427 10437 10447 10458 10468 10478 10488 10498 10506 10515 10524 10532 10541 10549 10558 10566 10576 10585
9936 9936 9936 9936 9937 9938 9939 9939 9941 9943 9945 9947 9949 9952 9954 9958 9961 9964 9968 9972 9976 9980 9985 9989 9994 10000 10006 10012 10018 10025 10032 10039 10047 10055 10064 10072 10081 10090 10099 10109 10118 10128 10139 10149 10161 10173 10186 10198 10209 10219 10229 10239 10249 10260 10271 10282 10293 10305 10317 10328 10339 10349 10360 10370 10379 10389 10399 10409 10419 10429 10440 10451 10461 10471 10480 10489 10499 10508 10516 10524 10533 10541 10551 10559 10569 10578
9934 9934 9934 9935 9935 9936 9936 9938 9939 9941 9943 9945 9947 9949 9952 9955 9958 9962 9966 9969 9974 9978 9982 9987 9992 9998 10003 10009 10014 10021 10028 10035 10042 10050 10058 10067 10076 10084 10094 10103 10113 10123 10133 10143 10154 10166 10178 10189 10200 10211 10221 10232 10242 10253 10263 10274 10285 10296 10307 10318 10329 10339 10349 10359 10370 10380 10390 10401 10411 10422 10433 10443 10453 10463 10473 10481 10491 10499 10508 10517 10526 10534 10544 10553 10563 10571
9933 9933 9933 9933 9933 9934 9934 9936 9937 9938 9940 9943 9945 9947 9949 9953 9956 9959 9963 9967 9971 9976 9979 9984 9989 9994 10000 10006 10012 10018 10024 10031 10038 10045 10053 10062 10071 10079 10088 10098 10107 10116 10126 10136 10147 10158 10169 10181 10193 10204 10215 10225 10236 10246 10256 10267 10278 10288 10298 10309 10319 10329 10339 10350 10361 10371 10382 10393 10404 10414 10425 10436 10446 10455 10464 10474 10483 10492 10501 10509 10518 10528 10537 10547 10556 10565
9931 9931 9931 9931 9931 9932 9933 9934 9935 9936 9938 9941 9943 9945 9948 9951 9954 9957 9961 9965 9969 9973 9978 9982 9986 9991 9997 10003 10009 10014 10021 10027 10034 10041 10049 10057 10065 10074 10083 10091 10101 10110 10119 10130 10140 10151 10163 10174 10186 10198 10209 10219 10229 10240 10250 10261 10271 10281 10291 10301 10311 10321 10331 10342 10353 10364 10374 10386 10396 10407 10418 10428 10438 10448 10458 10467 10476 10485 10493 10502 10511 10521 10530 10540 10549 10559
9929 9929 9929 9929 9930 9931 9931 9933 9933 9935 9936 9939 9941 9943 9946 9948 9951 9954 9958 9963 9966 9971 9975 9979 9984 9989 9994 9999 10005 10011 10017 10023 10030 10038 10045 10053 10060 10069 10077 10086 10094 10104 10113 10123 10133 10144 10155 10167 10179 10191 10202 10213 10223 10234 10244 10254 10264 10274 10284 10294 10304 10314 10324 10336 10346 10358 10369 10379 10390 10401 10411 10421 10431 10441 10451 10460 10469 10478 10487 10496 10504 10514 10524 10533 10543 10552
9928 9928 9928 9928 9928 9929 9930 9931 9932 9933 9935 9937 9939 9941 9943 9946 9949 9952 9956 9960 9964 9968 9972 9976 9981 9986 9991 9997 10002 10008 10014 10020 10026 10033 10040 10048 10056 10064 10073 10081 10089 10098 10108 10117 10126 10136 10148 10159 10172 10184 10195 10206 10216 10227 10237 10247 10257 10267 10276 10287 10298 10308 10319 10330 10341 10353 10363 10374 10384 10395 10405 10415 10425 10435 10444 10454 10463 10473 10481 10489 10498 10508 10518 10527 10537 10546
9926 9926 9926 9926 9927 9928 9928 9929 9930 9931 9933 9934 9937 9939 9941 9944 9947 9950 9953 9957 9961 9965 9969 9974 9979 9983 9988 9994 9999 10005 10011 10016 10023 10029 10036 10043 10051 10059 10068 10076 10084 10093 10102 10111 10120 10130 10141 10153 10165 10177 10188 10199 10209 10220 10230 10239 10249 10259 10269 10280 10291 10302 10313 10324 10336 10347 10358 10369 10379 10389 10399 10409 10419 10429 10439 10448 10458 10467 10476 10484 10493 10502 10511 10521 10531 10541
9925 9925 9925 9925 9925 9926 9927 9928 9929 9930 9931 9933 9934 9937 9939 9942 9944 9948 9951 9954 9958 9962 9966 9971 9976 9981 9986 9991 9996 10001 10007 10013 10019 10026 10033 10040 10047 10055 10063 10071 10079 10087 10096 10105 10114 10124 10135 10146 10158 10169 10181 10193 10203 10213 10223 10233 10243 10253 10263 10274 10285 10296 10308 10319 10331 10342 10353 10363 10374 10384 10394 10403 10413 10423 10433 10443 10453 10462 10471 10479 10488 10497 10506 10516 10526 10535
9924 9923 9923 9923 9924 9924 9925 9926 9927 9928 9929 9931 9933 9935 9937 9939 9942 9945 9948 9951 9955 9959 9964 9968 9973 9978 9984 9988 9993 9999 10004 10010 10016 10023 10029 10036 10043 10051 10058 10066 10074 10082 10091 10099 10108 10118 10129 10140 10151 10163 10174 10186 10197 10208 10218 10228 10238 10248 10258 10269 10280 10291 10303 10314 10325 10336 10348 10358 10368 10378 10388 10397 10407 10416 10427 10437 10447 10456 10466 10474 10483 10492 10501 10511 10520 10530
9923 9922 9922 9922 9923 9923 9924 9924 9926 9927 9928 9929 9931 9933 9935 9938 9940 9943 9946 9949 9952 9956 9961 9966 9971 9976 9981 9986 9991 9997 10002 10008 10013 10019 10026 10032 10039 10047 10054 10062 10069 10078 10086 10094 10103 10113 10123 10134 10145 10156 10168 10180 10191 10202 10212 10222 10232 10242 10253 10263 10274 10286 10297 10308 10319 10331 10341 10352 10362 10372 10381 10391 10401 10411 10421 10431 10441 10451 10460 10469 10478 10487 10496 10505 10515 10524
9921 9921 9921 9921 9921 9921 9922 9923 9924 9926 9927 9928 9930 9931 9933 9936 9938 9941 9944 9947 9950 9954 9958 9963 9968 9973 9979 9984 9989 9994 9999 10004 10010 10016 10022 10029 10036 10043 10050 10057 10064 10073 10081 10089 10098 10108 10118 10128 10139 10150 10162 10174 10185 10196 10206 10216 10226 10237 10247 10258 10269 10280 10291 10303 10313 10324 10335 10346 10356 10366 10375 10385 10394 10405 10415 10426 10436 10446 10455 10464 10473 10482 10491 10500 10509 10519
9920 9919 9919 9919 9920 9920 9921 9922 9923 9924 9926 9928 9929 9930 9931 9934 9936 9939 9942 9945 9948 9952 9956 9961 9966 9971 9976 9981 9986 9991 9996 10001 10007 10013 10019 10026 10033 10039 10046 10053 10060 10068 10076 10084 10093 10103 10113 10123 10134 10144 10156 10168 10179 10190 10201 10211 10221 10231 10241 10252 10263 10274 10285 10296 10308 10318 10329 10339 10349 10359 10369 10379 10389 10399 10410 10421 10431 10441 10450 10459 10468 10476 10485 10494 10504 10513
9919 9918 9918 9918 9919 9919 9920 9921 9922 9923 9924 9926 9927 9928 9930 9932 9934 9938 9941 9943 9947 9950 9954 9959 9964 9969 9973 9978 9983 9988 9993 9998 10004 10009 10016 10022 10028 10035 10042 10049 10056 10064 10071 10080 10089 10099 10109 10118 10128 10139 10150 10161 10173 10184 10195 10205 10216 10226 10236 10246 10257 10268 10279 10291 10301 10313 10323 10333 10344 10353 10363 10373 10383 10394 10404 10415 10425 10435 10444 10453 10462 10471 10479 10489 10498 10507
9918 9918 9918 9918 9918 9918 9918 9919 9920 9921 9923 9924 9926 9928 9929 9931 9933 9936 9939 9942 9945 9949 9953 9957 9961 9965 9969 9974 9979 9984 9989 9994 10000 10006 10013 10018 10024 10031 10039 10046 10053 10060 10068 10076 10085 10094 10104 10113 10123 10133 10144 10155 10166 10178 10189 10199 10210 10220 10230 10241 10251 10263 10273 10284 10296 10306 10317 10328 10338 10348 10358 10368 10378 10388 10399 10409 10419 10429 10438 10448 10456 10464 10473 10483 10491 10501
9917 9916 9916 9916 9916 9917 9918 9918 9919 9921 9923 9925 9926 9928 9929 9930 9933 9934 9937 9940 9943 9946 9950 9954 9958 9961 9966 9971 9976 9980 9986 9991 9997 10003 10009 10015 10022 10029 10036 10042 10048 10056 10063 10072 10081 10090 10099 10108 10117 10128 10138 10149 10161 10172 10183 10194 10204 10214 10224 10235 10246 10256 10267 10278 10289 10300 10311 10321 10331 10341 10351 10362 10372 10383 10393 10403 10413 10423 10432 10441 10450 10459 10468 10476 10486 10494
9916 9916 9915 9916 9916 9916 9917 9918 9919 9921 9921 9922 9923 9925 9927 9929 9931 9933 9936 9938 9941 9944 9948 9951 9955 9959 9964 9968 9973 9978 9983 9988 9994 9999 10005 10012 10019 10026 10032 10038 10044 10052 10059 10068 10078 10086 10094 10103 10112 10122 10133 10143 10154 10166 10178 10188 10199 10209 10219 10229 10239 10250 10261 10272 10283 10294 10304 10314 10325 10335 10346 10356 10366 10376 10387 10397 10407 10416 10426 10435 10444 10453 10461 10471 10479 10489
9916 9915 9914 9914 9914 9915 9916 9916 9916 9918 9919 9921 9922 9924 9926 9928 9929 9931 9934 9936 9939 9943 9946 9949 9953 9958 9962 9966 9970 9975 9980 9985 9991 9996 10003 10009 10016 10022 10028 10034 10041 10049 10056 10065 10073 10081 10089 10098 10107 10116 10127 10138 10149 10160 10171 10182 10193 10203 10213 10223 10233 10244 10254 10266 10276 10288 10298 10309 10319 10329 10339 10349 10360 10370 10381 10391 10400 10410 10419 10428 10438 10446 10455 10464 10473 10483
9915 9914 9914 9913 9913 9914 9914 9915 9916 9917 9918 9919 9921 9923 9924 9926 9928 9930 9933 9935 9938 9941 9944 9947 9951 9955 9959 9963 9967 9972 9978 9983 9988 9994 10000 10006 10013 10018 10024 10031 10038 10045 10053 10061 10069 10076 10084 10093 10102 10111 10121 10132 10143 10154 10166 10176 10187 10197 10207 10218 10228 10238 10249 10260 10271 10282 10293 10303 10313 10323 10333 10344 10354 10364 10374 10384 10394 10404 10413 10422 10431 10440 10449 10458 10468 10478
9914 9913 9913 9913 9913 9913 9913 9914 9914 9916 9917 9918 9919 9921 9923 9925 9927 9929 9931 9934 9936 9939 9941 9945 9948 9952 9956 9960 9964 9969 9974 9979 9985 9991 9997 10003 10009 10014 10021 10028 10035 10042 10049 10057 10065 10073 10081 10089 10098 10107 10117 10127 10138 10149 10160 10171 10181 10192 10202 10213 10223 10234 10244 10255 10266 10276 10287 10297 10308 10318 10328 10338 10348 10358 10369 10379 10388 10398 10407 10416 10425 10434 10443 10453 10462 10472
9913 9912 9912 9911 9911 9911 9912 9913 9913 9914 9916 9917 9919 9920 9922 9924 9926 9928 9930 9932 9934 9936 9939 9943 9946 9949 9953 9958 9962 9966 9971 9976 9982 9988 9994 9999 10005 10012 10019 10025 10031 10038 10046 10053 10061 10069 10076 10084 10093 10103 10112 10123 10133 10144 10154 10165 10176 10187 10197 10208 10218 10229 10239 10250 10260 10271 10281 10291 10301 10312 10322 10332 10343 10353 10363 10373 10383 10392 10401 10410 10419 10428 10438 10448 10458 10468
9913 9911 9911 9911 9911 9911 9911 9911 9913 9913 9914 9916 9918 9919 9921 9923 9924 9926 9928 9930 9933 9935 9938 9941 9944 9947 9951 9954 9958 9963 9968 9973 9979 9985 9990 9996 10002 10009 10016 10021 10028 10034 10042 10050 10058 10064 10071 10080 10089 10098 10108 10118 10128 10138 10149 10159 10171 10181 10192 10203 10213 10223 10233 10244 10254 10264 10275 10285 10296 10306 10316 10326 10336 10347 10357 10367 10376 10386 10395 10404 10413 10423 10433 10443 10453 10463
9912 9911 9910 9909 9909 9909 9910 9911 9911 9913 9913 9914 9916 9918 9919 9921 9923 9925 9927 9929 9932 9934 9937 9939 9942 9945 9948 9952 9956 9960 9966 9971 9976 9982 9987 9993 9999 10006 10013 10018 10024 10031 10039 10046 10053 10060 10067 10075 10084 10094 10103 10113 10123 10133 10143 10154 10164 10176 10186 10197 10207 10218 10228 10238 10248 10258 10269 10279 10289 10300 10310 10321 10331 10341 10351 10361 10371 10380 10389 10399 10408 10417 10427 10437 10447 10457
9911 9911 9909 9909 9909 9909 9909 9909 9911 9911 9913 9914 9915 9916 9918 9920 9922 9924 9926 9929 9931 9933 9936 9938 9940 9943 9946 9950 9954 9959 9964 9969 9974 9979 9984 9990 9997 10003 10009 10016 10022 10029 10036 10043 10050 10058 10064 10072 10081 10090 10099 10108 10118 10128 10138 10148 10159 10170 10181 10191 10201 10211 10221 10231 10242 10253 10263 10273 10284 10294 10304 10314 10325 10335 10345 10355 10365 10374 10384 10393 10403 10412 10422 10432 10442 10451
9911 9910 9909 9909 9908 9908 9908 9909 9909 9910 9911 9913 9914 9916 9917 9919 9921 9923 9925 9928 9930 9933 9934 9937 9939 9942 9945 9948 9952 9956 9961 9966 9971 9976 9981 9988 9993 9999 10006 10012 10018 10025 10033 10039 10047 10054 10063 10071 10079 10087 10096 10104 10113 10123 10133 10143 10154 10164 10175 10186 10196 10205 10215 10226 10236 10247 10258 10268 10278 10288 10299 10309 10319 10329 10339 10349 10359 10369 10378 10388 10397 10407 10417 10428 10437 10446
9911 9909 9909 9908 9908 9908 9908 9908 9909 9909 9911 9912 9913 9914 9916 9918 9920 9922 9924 9927 9929 9931 9934 9936 9938 9941 9944 9947 9951 9954 9959 9963 9968 9973 9978 9984 9990 9996 10003 10008 10014 10022 10029 10036 10043 10051 10058 10067 10075 10084 10092 10100 10109 10119 10128 10138 10149 10159 10169 10180 10189 10199 10209 10220 10231 10241 10251 10262 10272 10283 10293 10303 10313 10324 10334 10344 10354 10364 10374 10383 10393 10403 10414 10424 10433 10441
9911 9909 9908 9908 9908 9907 9907 9908 9908 9909 9909 9911 9912 9914 9915 9917 9919 9921 9924 9926 9928 9931 9933 9936 9938 9941 9943 9946 9949 9953 9957 9961 9965 9970 9975 9981 9987 9993 9999 10005 10011 10018 10026 10033 10040 10047 10054 10062 10070 10079 10088 10096 10105 10114 10124 10134 10144 10154 10164 10174 10184 10194 10204 10215 10225 10235 10246 10256 10267 10277 10287 10298 10308 10318 10329 10339 10349 10359 10369 10378 10389 10400 10410 10419 10428 10437
9910 9909 9908 9908 9907 9907 9907 9907 9908 9908 9909 9910 9911 9913 9914 9916 9918 9921 9923 9925 9928 9930 9933 9935 9938 9940 9943 9946 9948 9951 9955 9959 9963 9968 9973 9978 9984 9991 9996 10002 10009 10016 10022 10029 10036 10044 10051 10059 10067 10075 10083 10091 10100 10109 10118 10129 10139 10149 10159 10169 10179 10189 10200 10210 10220 10230 10240 10251 10261 10271 10281 10292 10303 10313 10323 10334 10344 10354 10364 10374 10385 10396 10405 10414 10423 10432
9910 9909 9908 9907 9907 9906 9906 9906 9907 9908 9908 9909 9910 9912 9913 9915 9918 9919 9922 9924 9927 9929 9931 9934 9936 9939 9942 9944 9947 9950 9953 9956 9961 9965 9971 9976 9982 9988 9993 9999 10006 10012 10019 10026 10033 10041 10048 10056 10064 10071 10079 10087 10095 10104 10113 10123 10134 10144 10154 10164 10174 10184 10195 10206 10216 10226 10236 10246 10256 10266 10276 10286 10297 10308 10318 10329 10339 10349 10360 10371 10382 10391 10400 10408 10417 10426
9910 9909 9908 9907 9906 9906 9906 9906 9906 9907 9908 9908 9909 9911 9913 9914 9916 9919 9921 9923 9926 9928 9931 9933 9936 9938 9941 9943 9946 9949 9951 9955 9959 9964 9969 9974 9979 9985 9991 9997 10003 10009 10016 10023 10030 10038 10045 10052 10059 10067 10074 10082 10091 10100 10109 10119 10129 10138 10148 10158 10169 10179 10189 10200 10210 10221 10231 10241 10251 10261 10271 10282 10293 10303 10313 10324 10335 10346 10356 10366 10376 10386 10394 10403 10412 10421
9910 9909 9908 9907 9906 9906 9906 9906 9906 9906 9907 9908 9909 9910 9912 9913 9915 9918 9919 9922 9924 9927 9929 9931 9934 9937 9939 9942 9944 9948 9951 9954 9958 9963 9968 9972 9977 9983 9988 9994 9999 10006 10013 10020 10027 10034 10041 10048 10055 10063 10070 10078 10086 10096 10106 10116 10124 10133 10143 10153 10164 10175 10185 10195 10205 10215 10226 10236 10246 10256 10267 10278 10288 10298 10309 10319 10330 10341 10351 10361 10370 10379 10388 10398 10407 10416
9910 9909 9908 9907 9906 9906 9906 9906 9906 9906 9907 9908 9908 9909 9911 9913 9914 9916 9918 9921 9923 9926 9928 9930 9933 9935 9938 9941 9943 9946 9949 9953 9958 9962 9966 9971 9976 9981 9986 9991 9998 10003 10010 10017 10023 10030 10038 10044 10052 10059 10068 10075 10083 10093 10101 10111 10119 10129 10139 10149 10159 10169 10179 10190 10201 10211 10221 10231 10241 10251 10262 10273 10283 10293 10304 10314 10325 10336 10345 10355 10365 10374 10384 10393 10402 10411
9910 9909 9908 9907 9906 9906 9906 9906 9906 9906 9906 9907 9908 9909 9911 9912 9914 9916 9918 9919 9922 9924 9926 9929 9931 9934 9936 9939 9942 9945 9948 9953 9957 9961 9966 9970 9975 9980 9984 9990 9995 10001 10007 10014 10020 10027 10034 10041 10048 10056 10063 10072 10080 10089 10097 10106 10114 10124 10135 10145 10154 10163 10173 10185 10196 10207 10217 10227 10237 10247 10258 10268 10278 10288 10299 10310 10321 10331 10341 10352 10362 10372 10381 10390 10399 10407
9910 9909 9908 9908 9907 9906 9906 9906 9906 9906 9906 9907 9908 9909 9910 9911 9913 9915 9917 9919 9921 9923 9926 9928 9931 9933 9936 9938 9941 9944 9948 9952 9956 9960 9965 9969 9974 9978 9983 9988 9993 9999 10004 10011 10017 10023 10030 10038 10044 10051 10059 10067 10076 10084 10093 10101 10111 10121 10131 10140 10149 10159 10170 10181 10191 10201 10211 10222 10232 10243 10254 10264 10274 10284 10295 10306 10317 10328 10339 10350 10360 10369 10378 10386 10396 10405
9911 9909 9908 9908 9907 9906 9906 9906 9906 9906 9906 9907 9908 9909 9910 9911 9913 9914 9916 9918 9921 9923 9925 9927 9929 9932 9934 9937 9940 9943 9947 9951 9955 9959 9964 9968 9973 9977 9981 9986 9991 9996 10001 10007 10013 10020 10027 10034 10041 10048 10056 10064 10072 10080 10089 10098 10108 10117 10126 10135 10145 10156 10167 10177 10187 10196 10206 10216 10227 10238 10248 10259 10270 10281 10291 10303 10314 10324 10335 10346 10356 10364 10373 10381 10391 10401
9911 9909 9909 9908 9907 9907 9906 9906 9906 9906 9907 9908 9908 9909 9910 9911 9913 9914 9916 9918 9920 9922 9924 9927 9929 9931 9934 9936 9939 9943 9946 9950 9954 9958 9962 9966 9971 9975 9979 9983 9988 9993 9998 10004 10010 10017 10024 10030 10037 10044 10053 10061 10069 10078 10086 10094 10104 10113 10122 10131 10141 10151 10161 10170 10180 10191 10202 10213 10223 10233 10243 10254 10265 10277 10288 10299 10310 10321 10331 10340 10349 10358 10368 10378 10388 10396
9911 9910 9909 9908 9908 9907 9907 9907 9906 9906 9907 9908 9909 9909 9911 9912 9913 9914 9916 9918 9920 9922 9924 9927 9929 9931 9934 9936 9939 9943 9946 9949 9953 9957 9961 9964 9968 9973 9976 9981 9985 9990 9995 10001 10007 10014 10021 10027 10034 10042 10051 10059 10066 10074 10083 10091 10101 10109 10118 10127 10138 10148 10156 10166 10176 10187 10198 10208 10219 10229 10239 10251 10262 10273 10284 10295 10306 10316 10326 10335 10344 10354 10364 10374 10384 10393
9912 9911 9909 9909 9908 9908 9907 9907 9907 9907 9907 9908 9909 9909 9911 9912 9913 9914 9916 9918 9920 9922 9924 9927 9929 9932 9934 9937 9939 9943 9946 9949 9953 9956 9959 9963 9967 9971 9974 9979 9983 9988 9993 9998 10004 10011 10018 10025 10033 10041 10048 10056 10063 10071 10079 10088 10097 10105 10114 10123 10133 10143 10153 10163 10174 10186 10195 10204 10214 10224 10235 10247 10259 10269 10279 10289 10299 10310 10321 10331 10341 10350 10359 10369 10379 10388
9913 9911 9910 9909 9908 9908 9908 9908 9908 9908 9908 9908 9908 9909 9910 9911 9913 9914 9916 9918 9920 9923 9925 9927 9929 9932 9935 9938 9941 9944 9947 9949 9953 9956 9959 9962 9966 9969 9973 9977 9981 9986 9991 9997 10003 10009 10016 10023 10031 10038 10046 10053 10060 10068 10076 10084 10093 10101 10110 10119 10129 10138 10148 10159 10170 10181 10190 10200 10210 10221 10231 10243 10254 10264 10274 10284 10296 10306 10317 10327 10336 10346 10356 10366 10376 10385
9913 9912 9911 9910 9909 9908 9908 9908 9908 9908 9908 9908 9909 9909 9910 9911 9913 9914 9916 9918 9920 9923 9924 9927 9929 9933 9935 9938 9941 9944 9948 9950 9953 9956 9958 9961 9965 9968 9972 9976 9980 9984 9989 9995 10001 10008 10014 10021 10028 10035 10043 10049 10057 10065 10073 10081 10089 10098 10107 10116 10125 10134 10144 10154 10164 10174 10184 10196 10207 10218 10228 10239 10249 10259 10269 10281 10293 10304 10314 10323 10332 10342 10353 10364 10374 10383
9914 9913 9912 9911 9910 9909 9909 9908 9908 9908 9909 9909 9909 9910 9911 9911 9913 9914 9916 9918 9919 9922 9924 9927 9929 9932 9935 9938 9941 9944 9948 9951 9953 9956 9959 9962 9965 9968 9972 9976 9980 9984 9989 9994 10000 10006 10013 10019 10026 10033 10040 10048 10055 10063 10071 10079 10087 10096 10104 10114 10123 10131 10141 10151 10161 10171 10182 10193 10203 10214 10224 10235 10245 10256 10267 10279 10290 10300 10309 10318 10328 10338 10351 10362 10373 10382
9915 9914 9913 9912 9911 9910 9909 9909 9909 9909 9909 9909 9910 9911 9911 9912 9913 9914 9916 9918 9919 9921 9924 9926 9929 9931 9934 9937 9941 9944 9948 9951 9954 9956 9959 9963 9966 9969 9973 9976 9981 9985 9989 9994 10000 10006 10011 10018 10024 10031 10038 10045 10052 10060 10068 10076 10084 10093 10102 10111 10119 10129 10138 10148 10159 10169 10180 10190 10199 10210 10221 10231 10242 10254 10266 10277 10287 10296 10305 10314 10324 10336 10348 10360 10370 10379